SWIFT

Last updated on Fri Feb 06 2026 00:02:42 GMT+0000 (Coordinated Universal Time)

1 28485U 04047A 26036.46254863 .00081347 00000+0 10936-2 0 9990 2 28485 20.5538 111.8944 0002292 281.4874 78.5312 15.56166007166230
UTC large
Height (km)
Speed (km/s)
/
Latitude / Longitude
Inclination (degrees)
Orbital Period (minutes)
Azimuth
Elevation
Range (km)
Doppler Factor

Next 0 passes for location: London (51.5072 / 0.1276)

Sorry there are no passes over London.